This is the latest recevied weather packets stored in our database for station/object K3RUP-1. If no packets are shown the sender has not sent any weather packets the latest 10 day(s).
| Time | Temp. | Humidity | Pressure | Rain* | Wind** | Luminosity | Snow |
|---|---|---|---|---|---|---|---|
| 1778023298 | 22.78° C | 58% | 1008.6 hPa | 0 mm | - | 21 W/m² | - |
| 1778022995 | 22.78° C | 58% | 1008.8 hPa | 0 mm | - | 24 W/m² | - |
| 1778022694 | 22.78° C | 57% | 1008.7 hPa | 0 mm | - | 25 W/m² | - |
| 1778022391 | 23.33° C | 57% | 1008.7 hPa | 0 mm | - | 29 W/m² | - |
| 1778022087 | 23.33° C | 55% | 1009 hPa | 0 mm | - | 32 W/m² | - |
| 1778021784 | 23.33° C | 54% | 1008.8 hPa | 0 mm | - | 39 W/m² | - |
| 1778021480 | 23.89° C | 54% | 1008.6 hPa | 0 mm | - | 45 W/m² | - |
| 1778021177 | 24.44° C | 52% | 1008.6 hPa | 0 mm | - | 47 W/m² | - |
| 1778020874 | 25° C | 50% | 1008.7 hPa | 0 mm | - | 46 W/m² | - |
| 1778020571 | 25° C | 48% | 1008.7 hPa | 0 mm | - | 55 W/m² | - |
| 1778020268 | 25.56° C | 44% | 1008.6 hPa | 0 mm | - | 50 W/m² | - |
| 1778019964 | 26.67° C | 40% | 1008.6 hPa | 0 mm | - | 48 W/m² | - |
| 1778019660 | 26.67° C | 34% | 1008.6 hPa | 0 mm | - | 49 W/m² | - |
| 1778019357 | 26.67° C | 32% | 1008.7 hPa | 0 mm | - | 52 W/m² | - |
| 1778019053 | 27.22° C | 35% | 1008.6 hPa | 0 mm | - | 60 W/m² | - |
| 1778018751 | 27.22° C | 34% | 1008.4 hPa | 0 mm | - | 69 W/m² | - |
| 1778018449 | 27.22° C | 39% | 1008.7 hPa | 0 mm | - | 97 W/m² | - |
| 1778018147 | 27.78° C | 35% | 1008.4 hPa | 0 mm | - | 88 W/m² | - |
| 1778017844 | 27.78° C | 34% | 1008.7 hPa | 0 mm | - | 85 W/m² | - |
| 1778017542 | 27.22° C | 33% | 1008.5 hPa | 0 mm | - | 92 W/m² | - |
| 1778017239 | 27.22° C | 40% | 1008.4 hPa | 0 mm | - | 97 W/m² | - |
| 1778016937 | 26.67° C | 42% | 1008.3 hPa | 0 mm | - | 67 W/m² | - |
| 1778016632 | 27.22° C | 44% | 1008.5 hPa | 0 mm | - | 89 W/m² | - |
| 1778016329 | 27.22° C | 43% | 1008.3 hPa | 0 mm | - | 133 W/m² | - |
| 1778016026 | 27.22° C | 45% | 1008.4 hPa | 0 mm | - | 273 W/m² | - |
* Rain latest hour (hover to see other rain measurements)
** Current wind speed in m/s (hover to see current wind gust speed)